2023/02/27 00:00:00,24.2, 0.8
2023/02/27 00:10:00,24.2, 0.5
2023/02/27 00:20:00,24.2, 0.4
2023/02/27 00:30:00,24.3, 0.1
2023/02/27 00:40:00,24.2, 0.1
2023/02/27 00:50:00,24.3, 0.2
2023/02/27 01:00:00,24.3, 0.2
2023/02/27 01:10:00,24.2, 0.0
2023/02/27 01:20:00,24.3,-0.2
2023/02/27 01:30:00,24.3,-0.2
2023/02/27 01:40:00,24.2,-0.4
2023/02/27 01:50:00,24.3,-0.4
2023/02/27 02:00:00,24.3,-0.3
2023/02/27 02:10:00,24.3,-0.4
2023/02/27 02:20:00,24.3,-0.6
2023/02/27 02:30:00,24.3,-0.8
2023/02/27 02:40:00,24.3,-0.8
2023/02/27 02:50:00,24.3,-0.9
2023/02/27 03:00:00,24.3,-0.9
2023/02/27 03:10:00,24.2,-0.8
2023/02/27 03:20:00,24.3,-1.2
2023/02/27 03:30:00,24.3,-1.0
2023/02/27 03:40:00,24.2,-1.0
2023/02/27 03:50:00,24.2,-1.0
2023/02/27 04:00:00,24.2,-1.1
2023/02/27 04:10:00,24.2,-1.2
2023/02/27 04:20:00,24.2,-1.1
2023/02/27 04:30:00,24.2,-1.2
2023/02/27 04:40:00,24.2,-1.3
2023/02/27 04:50:00,24.2,-1.2
2023/02/27 05:00:00,24.2,-1.4
2023/02/27 05:10:00,24.2,-1.5
2023/02/27 05:20:00,24.1,-1.8
2023/02/27 05:30:00,24.1,-1.6
2023/02/27 05:40:00,24.1,-1.7
2023/02/27 05:50:00,24.1,-1.9
2023/02/27 06:00:00,24.2,-1.8
2023/02/27 06:10:00,24.2,-1.8
2023/02/27 06:20:00,24.2,-1.8
2023/02/27 06:30:00,24.1,-1.7
2023/02/27 06:40:00,24.1,-1.8
2023/02/27 06:50:00,24.1,-1.8
2023/02/27 07:00:00,24.1,-2.0
2023/02/27 07:10:00,24.1,-1.9
2023/02/27 07:20:00,24.1,-1.7
2023/02/27 07:30:00,24.2,-1.6
2023/02/27 07:40:00,24.1,-1.7
2023/02/27 07:50:00,24.1,-1.8
2023/02/27 08:00:00,24.0,-1.4
2023/02/27 08:10:00,24.0,-1.2
2023/02/27 08:20:00,24.0,-0.9
2023/02/27 08:30:00,24.0,-0.8
2023/02/27 08:40:00,24.0,-0.4
2023/02/27 08:50:00,24.0, 0.1
2023/02/27 09:00:00,24.0, 0.8
2023/02/27 09:10:00,23.9, 1.0
2023/02/27 09:20:00,23.8, 1.9
2023/02/27 09:30:00,23.8, 2.9
2023/02/27 09:40:00,23.8, 3.5
2023/02/27 09:50:00,23.8, 4.8
2023/02/27 10:00:00,23.8, 5.7
2023/02/27 10:10:00,23.8, 6.4
2023/02/27 10:20:00,23.4, 7.7
2023/02/27 10:30:00,22.9, 8.4
2023/02/27 10:40:00,22.6, 9.0
2023/02/27 10:50:00,22.2, 9.1
2023/02/27 11:00:00,21.9, 9.4
2023/02/27 11:10:00,21.6, 9.9
2023/02/27 11:20:00,21.7,10.5
2023/02/27 11:30:00,21.6,11.8
2023/02/27 11:40:00,21.4,14.0
2023/02/27 11:50:00,21.0,14.3
2023/02/27 12:00:00,20.9,15.3
2023/02/27 12:10:00,20.6,15.0
2023/02/27 12:20:00,20.4,15.2
2023/02/27 12:30:00,20.4,15.2
2023/02/27 12:40:00,20.4,14.4
2023/02/27 12:50:00,20.4,14.2
2023/02/27 13:00:00,20.0,13.8
2023/02/27 13:10:00,19.9,14.0
2023/02/27 13:20:00,19.8,13.7
2023/02/27 13:30:00,19.6,13.4
2023/02/27 13:40:00,19.6,13.3
2023/02/27 13:50:00,19.6,13.9
2023/02/27 14:00:00,19.3,14.3
2023/02/27 14:10:00,19.4,14.0
2023/02/27 14:20:00,19.2,14.3
2023/02/27 14:30:00,18.9,15.5
2023/02/27 14:40:00,18.7,15.3
2023/02/27 14:50:00,18.7,16.2
2023/02/27 15:00:00,18.8,15.8
2023/02/27 15:10:00,18.5,16.2
2023/02/27 15:20:00,18.4,16.8
2023/02/27 15:30:00,18.5,15.8
2023/02/27 15:40:00,18.4,15.5
2023/02/27 15:50:00,18.4,15.0
2023/02/27 16:00:00,18.2,16.2
2023/02/27 16:10:00,18.2,13.6
2023/02/27 16:20:00,18.8, 9.7
2023/02/27 16:30:00,18.9, 9.6
2023/02/27 16:40:00,19.0, 7.9
2023/02/27 16:50:00,19.1, 7.1
2023/02/27 17:00:00,19.2, 6.6
2023/02/27 17:10:00,19.3, 5.9
2023/02/27 17:20:00,19.3, 5.7
2023/02/27 17:30:00,19.4, 5.2
2023/02/27 17:40:00,19.4, 4.9
2023/02/27 17:50:00,19.3, 4.2
2023/02/27 18:00:00,19.3, 3.9
2023/02/27 18:10:00,19.3, 3.4
2023/02/27 18:20:00,19.3, 3.4
2023/02/27 18:30:00,19.3, 3.1
2023/02/27 18:40:00,19.4, 3.2
2023/02/27 18:50:00,19.3, 2.6
2023/02/27 19:00:00,19.4, 2.5
2023/02/27 19:10:00,19.3, 2.6
2023/02/27 19:20:00,19.3, 2.4
2023/02/27 19:30:00,19.3, 2.2
2023/02/27 19:40:00,19.3, 2.0
2023/02/27 19:50:00,19.4, 2.0
2023/02/27 20:00:00,19.4, 1.8
2023/02/27 20:10:00,19.4, 1.9
2023/02/27 20:20:00,19.4, 1.9
2023/02/27 20:30:00,19.3, 2.1
2023/02/27 20:40:00,19.2, 1.7
2023/02/27 20:50:00,19.2, 1.7
2023/02/27 21:00:00,19.3, 1.4
2023/02/27 21:10:00,19.3, 1.4
2023/02/27 21:20:00,19.3, 1.6
2023/02/27 21:30:00,19.2, 1.7
2023/02/27 21:40:00,19.2, 1.6
2023/02/27 21:50:00,19.2, 1.5
2023/02/27 22:00:00,19.2, 1.4
2023/02/27 22:10:00,19.3, 1.4
2023/02/27 22:20:00,19.3, 1.4
2023/02/27 22:30:00,19.3, 1.3
2023/02/27 22:40:00,19.2, 1.1
2023/02/27 22:50:00,19.2, 1.1
2023/02/27 23:00:00,19.2, 1.1
2023/02/27 23:10:00,19.2, 1.0
2023/02/27 23:20:00,19.2, 0.9
2023/02/27 23:30:00,19.2, 0.8
2023/02/27 23:40:00,19.2, 0.6
2023/02/27 23:50:00,19.2, 0.5
